This is the latest recevied weather packets stored in our database for station/object Kirchdorf. If no packets are shown the sender has not sent any weather packets the latest 10 day(s).
| Time | Temp. | Humidity | Pressure | Rain* | Wind** | Luminosity | Snow |
|---|---|---|---|---|---|---|---|
| 1787837531 | 29.44° C | 58% | 1011.9 hPa | 0 mm | - | - | - |
| 1787835730 | 29.44° C | 60% | 1012 hPa | 0 mm | - | - | - |
| 1787833930 | 29.44° C | 60% | 1012.3 hPa | 0 mm | - | - | - |
| 1787832131 | 29.44° C | 60% | 1012.6 hPa | 0 mm | - | - | - |
| 1787830330 | 28.33° C | 64% | 1012.7 hPa | 0 mm | - | - | - |
| 1787828530 | 27.78° C | 64% | 1013.3 hPa | 0 mm | - | - | - |
| 1787826730 | 26.67° C | 64% | 1013.5 hPa | 0 mm | - | - | - |
| 1787824931 | 25.56° C | 67% | 1013.9 hPa | 0 mm | - | - | - |
| 1787823130 | 24.44° C | 70% | 1014.1 hPa | 0 mm | - | - | - |
| 1787821330 | 22.78° C | 77% | 1013.9 hPa | 0 mm | - | - | - |
| 1787819530 | 21.67° C | 81% | 1013.8 hPa | 0 mm | - | - | - |
| 1787817730 | 20.56° C | 84% | 1014 hPa | 0 mm | - | - | - |
| 1787815930 | 19.44° C | 88% | 1014.1 hPa | 0 mm | - | - | - |
| 1787814130 | 18.33° C | 92% | 1013.8 hPa | 0 mm | - | - | - |
| 1787812329 | 17.22° C | 95% | 1013.8 hPa | 0 mm | - | - | - |
| 1787810529 | 16.11° C | 96% | 1013.8 hPa | 0 mm | - | - | - |
| 1787808730 | 15.56° C | 95% | 1013.3 hPa | 0 mm | - | - | - |
| 1787806930 | 15° C | 93% | 1013.3 hPa | 0 mm | - | - | - |
| 1787805129 | 15.56° C | 92% | 1013.5 hPa | 0 mm | - | - | - |
| 1787803330 | 15.56° C | 92% | 1013.6 hPa | 0 mm | - | - | - |
| 1787801529 | 15.56° C | 92% | 1013.7 hPa | 0 mm | - | - | - |
| 1787799730 | 16.11° C | 91% | 1014.1 hPa | 0 mm | - | - | - |
| 1787797929 | 16.11° C | 91% | 1013.9 hPa | 0 mm | - | - | - |
| 1787796130 | 16.67° C | 91% | 1013.9 hPa | 0 mm | - | - | - |
| 1787794330 | 16.67° C | 90% | 1014 hPa | 0 mm | - | - | - |
* Rain since midnight (hover to see other rain measurements)
** Current wind speed in m/s (hover to see current wind gust speed)